Year,Month,Day,Hour,Minute,Value (Times are PST for temperature in C)
2012,07,04,00,00,12.60
2012,07,04,00,01,12.50
2012,07,04,00,02,12.50
2012,07,04,00,03,12.50
2012,07,04,00,04,12.50
2012,07,04,00,05,12.50
2012,07,04,00,06,12.50
2012,07,04,00,07,12.40
2012,07,04,00,08,12.40
2012,07,04,00,09,12.40
2012,07,04,00,10,12.40
2012,07,04,00,11,12.40
2012,07,04,00,12,12.40
2012,07,04,00,13,12.40
2012,07,04,00,14,12.40
2012,07,04,00,15,12.40
2012,07,04,00,16,12.40
2012,07,04,00,17,12.30
2012,07,04,00,18,12.30
2012,07,04,00,19,12.40
2012,07,04,00,20,12.30
2012,07,04,00,21,12.30
2012,07,04,00,22,12.30
2012,07,04,00,23,12.30
2012,07,04,00,24,12.30
2012,07,04,00,25,12.20
2012,07,04,00,26,12.20
2012,07,04,00,27,12.20
2012,07,04,00,28,12.20
2012,07,04,00,29,12.20
2012,07,04,00,30,12.20
2012,07,04,00,31,12.20
2012,07,04,00,32,12.20
2012,07,04,00,33,12.20
2012,07,04,00,34,12.10
2012,07,04,00,35,12.10
2012,07,04,00,36,12.10
2012,07,04,00,37,12.10
2012,07,04,00,38,12.10
2012,07,04,00,39,12.10
2012,07,04,00,40,12.10
2012,07,04,00,41,12.10
2012,07,04,00,42,12.10
2012,07,04,00,43,12.10
2012,07,04,00,44,12.10
2012,07,04,00,45,12.10
2012,07,04,00,46,12.10
2012,07,04,00,47,12.10
2012,07,04,00,48,12.10
2012,07,04,00,49,12.10
2012,07,04,00,50,12.00
2012,07,04,00,51,12.00
2012,07,04,00,52,12.00
2012,07,04,00,53,12.00
2012,07,04,00,54,12.00
2012,07,04,00,55,12.00
2012,07,04,00,56,12.00
2012,07,04,00,57,12.00
2012,07,04,00,58,12.00
2012,07,04,00,59,12.00
2012,07,04,01,00,11.90
2012,07,04,01,01,11.90
2012,07,04,01,02,11.90
2012,07,04,01,03,11.90
2012,07,04,01,04,11.90
2012,07,04,01,05,11.90
2012,07,04,01,06,11.90
2012,07,04,01,07,11.90
2012,07,04,01,08,11.80
2012,07,04,01,09,11.80
2012,07,04,01,10,11.80
2012,07,04,01,11,11.80
2012,07,04,01,12,11.80
2012,07,04,01,13,11.80
2012,07,04,01,14,11.80
2012,07,04,01,15,11.80
2012,07,04,01,16,11.70
2012,07,04,01,17,11.70
2012,07,04,01,18,11.70
2012,07,04,01,19,11.70
2012,07,04,01,20,11.70
2012,07,04,01,21,11.70
2012,07,04,01,22,11.70
2012,07,04,01,23,11.70
2012,07,04,01,24,11.70
2012,07,04,01,25,11.70
2012,07,04,01,26,11.70
2012,07,04,01,27,11.70
2012,07,04,01,28,11.70
2012,07,04,01,29,11.70
2012,07,04,01,30,11.70
2012,07,04,01,31,11.70
2012,07,04,01,32,11.70
2012,07,04,01,33,11.70
2012,07,04,01,34,11.70
2012,07,04,01,35,11.70
2012,07,04,01,36,11.70
2012,07,04,01,37,11.70
2012,07,04,01,38,11.70
2012,07,04,01,39,11.70
2012,07,04,01,40,11.70
2012,07,04,01,41,11.60
2012,07,04,01,42,11.60
2012,07,04,01,43,11.60
2012,07,04,01,44,11.60
2012,07,04,01,45,11.60
2012,07,04,01,46,11.60
2012,07,04,01,47,11.60
2012,07,04,01,48,11.60
2012,07,04,01,49,11.50
2012,07,04,01,50,11.50
2012,07,04,01,51,11.50
2012,07,04,01,52,11.50
2012,07,04,01,53,11.50
2012,07,04,01,54,11.50
2012,07,04,01,55,11.50
2012,07,04,01,56,11.50
2012,07,04,01,57,11.60
2012,07,04,01,58,11.50
2012,07,04,01,59,11.50
2012,07,04,02,00,11.50
2012,07,04,02,01,11.50
2012,07,04,02,02,11.50
2012,07,04,02,03,11.60
2012,07,04,02,04,11.50
2012,07,04,02,05,11.50
2012,07,04,02,06,11.50
2012,07,04,02,07,11.50
2012,07,04,02,08,11.50
2012,07,04,02,09,11.50
2012,07,04,02,10,11.50
2012,07,04,02,11,11.50
2012,07,04,02,12,11.50
2012,07,04,02,13,11.50
2012,07,04,02,14,11.50
2012,07,04,02,15,11.60
2012,07,04,02,16,11.70
2012,07,04,02,17,11.80
2012,07,04,02,18,11.80
2012,07,04,02,19,11.80
2012,07,04,02,20,11.80
2012,07,04,02,21,11.80
2012,07,04,02,22,11.80
2012,07,04,02,23,11.80
2012,07,04,02,24,11.80
2012,07,04,02,25,11.80
2012,07,04,02,26,11.80
2012,07,04,02,27,11.80
2012,07,04,02,28,11.80
2012,07,04,02,29,11.90
2012,07,04,02,30,11.90
2012,07,04,02,31,11.90
2012,07,04,02,32,12.00
2012,07,04,02,33,12.00
2012,07,04,02,34,12.00
2012,07,04,02,35,12.00
2012,07,04,02,36,12.00
2012,07,04,02,37,12.00
2012,07,04,02,38,12.10
2012,07,04,02,39,12.10
2012,07,04,02,40,12.10
2012,07,04,02,41,12.10
2012,07,04,02,42,12.10
2012,07,04,02,43,12.10
2012,07,04,02,44,12.10
2012,07,04,02,45,12.10
2012,07,04,02,46,12.10
2012,07,04,02,47,12.10
2012,07,04,02,48,12.10
2012,07,04,02,49,12.10
2012,07,04,02,50,12.10
2012,07,04,02,51,12.10
2012,07,04,02,52,12.20
2012,07,04,02,53,12.20
2012,07,04,02,54,12.20
2012,07,04,02,55,12.20
2012,07,04,02,56,12.20
2012,07,04,02,57,12.20
2012,07,04,02,58,12.20
2012,07,04,02,59,12.20
2012,07,04,03,00,12.20
2012,07,04,03,01,12.20
2012,07,04,03,02,12.20
2012,07,04,03,03,12.20
2012,07,04,03,04,12.20
2012,07,04,03,05,12.20
2012,07,04,03,06,12.20
2012,07,04,03,07,12.20
2012,07,04,03,08,12.20
2012,07,04,03,09,12.20
2012,07,04,03,10,12.20
2012,07,04,03,11,12.20
2012,07,04,03,12,12.20
2012,07,04,03,13,12.20
2012,07,04,03,14,12.20
2012,07,04,03,15,12.20
2012,07,04,03,16,12.20
2012,07,04,03,17,12.20
2012,07,04,03,18,12.20
2012,07,04,03,19,12.20
2012,07,04,03,20,12.10
2012,07,04,03,21,12.10
2012,07,04,03,22,12.10
2012,07,04,03,23,12.10
2012,07,04,03,24,12.10
2012,07,04,03,25,12.10
2012,07,04,03,26,12.10
2012,07,04,03,27,12.00
2012,07,04,03,28,12.00
2012,07,04,03,29,12.00
2012,07,04,03,30,12.00
2012,07,04,03,31,11.90
2012,07,04,03,32,11.90
2012,07,04,03,33,11.90
2012,07,04,03,34,11.90
2012,07,04,03,35,11.90
2012,07,04,03,36,11.90
2012,07,04,03,37,11.90
2012,07,04,03,38,11.90
2012,07,04,03,39,11.90
2012,07,04,03,40,11.90
2012,07,04,03,41,11.90
2012,07,04,03,42,11.90
2012,07,04,03,43,11.90
2012,07,04,03,44,11.90
2012,07,04,03,45,11.90
2012,07,04,03,46,11.90
2012,07,04,03,47,11.90
2012,07,04,03,48,11.90
2012,07,04,03,49,11.90
2012,07,04,03,50,11.90
2012,07,04,03,51,11.90
2012,07,04,03,52,11.90
2012,07,04,03,53,11.90
2012,07,04,03,54,11.90
2012,07,04,03,55,11.90
2012,07,04,03,56,11.90
2012,07,04,03,57,11.90
2012,07,04,03,58,11.80
2012,07,04,03,59,11.80
2012,07,04,04,00,11.80
2012,07,04,04,01,11.80
2012,07,04,04,02,11.80
2012,07,04,04,03,11.80
2012,07,04,04,04,11.80
2012,07,04,04,05,11.80
2012,07,04,04,06,11.80
2012,07,04,04,07,11.80
2012,07,04,04,08,11.80
2012,07,04,04,09,11.80
2012,07,04,04,10,11.80
2012,07,04,04,11,11.80
2012,07,04,04,12,11.80
2012,07,04,04,13,11.80
2012,07,04,04,14,11.80
2012,07,04,04,15,11.70
2012,07,04,04,16,11.70
2012,07,04,04,17,11.70
2012,07,04,04,18,11.70
2012,07,04,04,19,11.70
2012,07,04,04,20,11.70
2012,07,04,04,21,11.70
2012,07,04,04,22,11.70
2012,07,04,04,23,11.70
2012,07,04,04,24,11.70
2012,07,04,04,25,11.70
2012,07,04,04,26,11.70
2012,07,04,04,27,11.70
2012,07,04,04,28,11.70
2012,07,04,04,29,11.70
2012,07,04,04,30,11.70
2012,07,04,04,31,11.70
2012,07,04,04,32,11.70
2012,07,04,04,33,11.70
2012,07,04,04,34,11.70
2012,07,04,04,35,11.70
2012,07,04,04,36,11.70
2012,07,04,04,37,11.70
2012,07,04,04,38,11.70
2012,07,04,04,39,11.70
2012,07,04,04,40,11.70
2012,07,04,04,41,11.70
2012,07,04,04,42,11.70
2012,07,04,04,43,11.70
2012,07,04,04,44,11.70
2012,07,04,04,45,11.70
2012,07,04,04,46,11.70
2012,07,04,04,47,11.70
2012,07,04,04,48,11.70
2012,07,04,04,49,11.70
2012,07,04,04,50,11.70
2012,07,04,04,51,11.60
2012,07,04,04,52,11.60
2012,07,04,04,53,11.60
2012,07,04,04,54,11.60
2012,07,04,04,55,11.60
2012,07,04,04,56,11.50
2012,07,04,04,57,11.50
2012,07,04,04,58,11.40
2012,07,04,04,59,11.40
2012,07,04,05,00,11.40
2012,07,04,05,01,11.40
2012,07,04,05,02,11.40
2012,07,04,05,03,11.40
2012,07,04,05,04,11.40
2012,07,04,05,05,11.30
2012,07,04,05,06,11.30
2012,07,04,05,07,11.30
2012,07,04,05,08,11.30
2012,07,04,05,09,11.30
2012,07,04,05,10,11.30
2012,07,04,05,11,11.30
2012,07,04,05,12,11.30
2012,07,04,05,13,11.30
2012,07,04,05,14,11.30
2012,07,04,05,15,11.30
2012,07,04,05,16,11.20
2012,07,04,05,17,11.20
2012,07,04,05,18,11.20
2012,07,04,05,19,11.20
2012,07,04,05,20,11.20
2012,07,04,05,21,11.20
2012,07,04,05,22,11.10
2012,07,04,05,23,11.10
2012,07,04,05,24,11.10
2012,07,04,05,25,11.10
2012,07,04,05,26,11.10
2012,07,04,05,27,11.10
2012,07,04,05,28,11.10
2012,07,04,05,29,11.10
2012,07,04,05,30,11.10
2012,07,04,05,31,11.10
2012,07,04,05,32,11.10
2012,07,04,05,33,11.10
2012,07,04,05,34,11.10
2012,07,04,05,35,11.10
2012,07,04,05,36,11.10
2012,07,04,05,37,11.10
2012,07,04,05,38,11.10
2012,07,04,05,39,11.10
2012,07,04,05,40,11.10
2012,07,04,05,41,11.10
2012,07,04,05,42,11.10
2012,07,04,05,43,11.10
2012,07,04,05,44,11.00
2012,07,04,05,45,11.00
2012,07,04,05,46,11.00
2012,07,04,05,47,11.00
2012,07,04,05,48,11.00
2012,07,04,05,49,11.00
2012,07,04,05,50,11.00
2012,07,04,05,51,11.00
2012,07,04,05,52,11.00
2012,07,04,05,53,11.00
2012,07,04,05,54,11.00
2012,07,04,05,55,11.00
2012,07,04,05,56,11.00
2012,07,04,05,57,11.00
2012,07,04,05,58,11.10
2012,07,04,05,59,11.10
2012,07,04,06,00,11.10
2012,07,04,06,01,11.10
2012,07,04,06,02,11.10
2012,07,04,06,03,11.10
2012,07,04,06,04,11.10
2012,07,04,06,05,11.10
2012,07,04,06,06,11.10
2012,07,04,06,07,11.10
2012,07,04,06,08,11.10
2012,07,04,06,09,11.10
2012,07,04,06,10,11.10
2012,07,04,06,11,11.20
2012,07,04,06,12,11.20
2012,07,04,06,13,11.20
2012,07,04,06,14,11.20
2012,07,04,06,15,11.20
2012,07,04,06,16,11.20
2012,07,04,06,17,11.20
2012,07,04,06,18,11.20
2012,07,04,06,19,11.20
2012,07,04,06,20,11.30
2012,07,04,06,21,11.30
2012,07,04,06,22,11.30
2012,07,04,06,23,11.30
2012,07,04,06,24,11.30
2012,07,04,06,25,11.30
2012,07,04,06,26,11.30
2012,07,04,06,27,11.30
2012,07,04,06,28,11.30
2012,07,04,06,29,11.40
2012,07,04,06,30,11.40
2012,07,04,06,31,11.40
2012,07,04,06,32,11.40
2012,07,04,06,33,11.40
2012,07,04,06,34,11.40
2012,07,04,06,35,11.40
2012,07,04,06,36,11.40
2012,07,04,06,37,11.40
2012,07,04,06,38,11.40
2012,07,04,06,39,11.40
2012,07,04,06,40,11.40
2012,07,04,06,41,11.40
2012,07,04,06,42,11.40
2012,07,04,06,43,11.40
2012,07,04,06,44,11.40
2012,07,04,06,45,11.40
2012,07,04,06,46,11.40
2012,07,04,06,47,11.50
2012,07,04,06,48,11.50
2012,07,04,06,49,11.50
2012,07,04,06,50,11.50
2012,07,04,06,51,11.50
2012,07,04,06,52,11.50
2012,07,04,06,53,11.50
2012,07,04,06,54,11.50
2012,07,04,06,55,11.50
2012,07,04,06,56,11.50
2012,07,04,06,57,11.50
2012,07,04,06,58,11.50
2012,07,04,06,59,11.50
2012,07,04,07,00,11.50
2012,07,04,07,01,11.60
2012,07,04,07,02,11.60
2012,07,04,07,03,11.60
2012,07,04,07,04,11.60
2012,07,04,07,05,11.60
2012,07,04,07,06,11.60
2012,07,04,07,07,11.60
2012,07,04,07,08,11.60
2012,07,04,07,09,11.60
2012,07,04,07,10,11.60
2012,07,04,07,11,11.60
2012,07,04,07,12,11.60
2012,07,04,07,13,11.70
2012,07,04,07,14,11.70
2012,07,04,07,15,11.70
2012,07,04,07,16,11.70
2012,07,04,07,17,11.70
2012,07,04,07,18,11.70
2012,07,04,07,19,11.70
2012,07,04,07,20,11.70
2012,07,04,07,21,11.70
2012,07,04,07,22,11.70
2012,07,04,07,23,11.70
2012,07,04,07,24,11.70
2012,07,04,07,25,11.70
2012,07,04,07,26,11.70
2012,07,04,07,27,11.70
2012,07,04,07,28,11.70
2012,07,04,07,29,11.60
2012,07,04,07,30,11.60
2012,07,04,07,31,11.70
2012,07,04,07,32,11.60
2012,07,04,07,33,11.70
2012,07,04,07,34,11.70
2012,07,04,07,35,11.70
2012,07,04,07,36,11.70
2012,07,04,07,37,11.60
2012,07,04,07,38,11.70
2012,07,04,07,39,11.70
2012,07,04,07,40,11.60
2012,07,04,07,41,11.60
2012,07,04,07,42,11.60
2012,07,04,07,43,11.60
2012,07,04,07,44,11.60
2012,07,04,07,45,11.60
2012,07,04,07,46,11.60
2012,07,04,07,47,11.60
2012,07,04,07,48,11.60
2012,07,04,07,49,11.60
2012,07,04,07,50,11.60
2012,07,04,07,51,11.60
2012,07,04,07,52,11.60
2012,07,04,07,53,11.60
2012,07,04,07,54,11.60
2012,07,04,07,55,11.60
2012,07,04,07,56,11.50
2012,07,04,07,57,11.50
2012,07,04,07,58,11.60
2012,07,04,07,59,11.50
2012,07,04,08,00,11.60
2012,07,04,08,01,11.60
2012,07,04,08,02,11.60
2012,07,04,08,03,11.60
2012,07,04,08,04,11.60
2012,07,04,08,05,11.60
2012,07,04,08,06,11.70
2012,07,04,08,07,11.70
2012,07,04,08,08,11.80
2012,07,04,08,09,11.80
2012,07,04,08,10,11.80
2012,07,04,08,11,11.80
2012,07,04,08,12,11.80
2012,07,04,08,13,11.80
2012,07,04,08,14,11.80
2012,07,04,08,15,11.80
2012,07,04,08,16,11.80
2012,07,04,08,17,11.80
2012,07,04,08,18,11.80
2012,07,04,08,19,11.80
2012,07,04,08,20,11.80
2012,07,04,08,21,11.80
2012,07,04,08,22,11.80
2012,07,04,08,23,11.90
2012,07,04,08,24,11.90
2012,07,04,08,25,11.90
2012,07,04,08,26,11.90
2012,07,04,08,27,11.90
2012,07,04,08,28,11.90
2012,07,04,08,29,11.90
2012,07,04,08,30,11.90
2012,07,04,08,31,11.90
2012,07,04,08,32,11.90
2012,07,04,08,33,11.90
2012,07,04,08,34,11.90
2012,07,04,08,35,11.90
2012,07,04,08,36,11.90
2012,07,04,08,37,11.90
2012,07,04,08,38,11.90
2012,07,04,08,39,12.00
2012,07,04,08,40,12.00
2012,07,04,08,41,12.10
2012,07,04,08,42,12.10
2012,07,04,08,43,12.20
2012,07,04,08,44,12.20
2012,07,04,08,45,12.30
2012,07,04,08,46,12.30
2012,07,04,08,47,12.30
2012,07,04,08,48,12.40
2012,07,04,08,49,12.40
2012,07,04,08,50,12.40
2012,07,04,08,51,12.40
2012,07,04,08,52,12.40
2012,07,04,08,53,12.50
2012,07,04,08,54,12.60
2012,07,04,08,55,12.60
2012,07,04,08,56,12.70
2012,07,04,08,57,12.70
2012,07,04,08,58,12.70
2012,07,04,08,59,12.80
2012,07,04,09,00,12.80
2012,07,04,09,01,12.80
2012,07,04,09,02,12.80
2012,07,04,09,03,12.90
2012,07,04,09,04,12.90
2012,07,04,09,05,12.90
2012,07,04,09,06,12.80
2012,07,04,09,07,12.80
2012,07,04,09,08,12.80
2012,07,04,09,09,12.70
2012,07,04,09,10,12.70
2012,07,04,09,11,12.70
2012,07,04,09,12,12.80
2012,07,04,09,13,12.80
2012,07,04,09,14,12.80
2012,07,04,09,15,12.90
2012,07,04,09,16,12.90
2012,07,04,09,17,12.90
2012,07,04,09,18,13.00
2012,07,04,09,19,13.00
2012,07,04,09,20,13.10
2012,07,04,09,21,13.00
2012,07,04,09,22,13.00
2012,07,04,09,23,12.90
2012,07,04,09,24,12.90
2012,07,04,09,25,12.80
2012,07,04,09,26,12.70
2012,07,04,09,27,12.70
2012,07,04,09,28,12.80
2012,07,04,09,29,12.80
2012,07,04,09,30,12.70
2012,07,04,09,31,12.70
2012,07,04,09,32,12.70
2012,07,04,09,33,12.60
2012,07,04,09,34,12.50
2012,07,04,09,35,12.50
2012,07,04,09,36,12.50
2012,07,04,09,37,12.50
2012,07,04,09,38,12.60
2012,07,04,09,39,12.60
2012,07,04,09,40,12.70
2012,07,04,09,41,12.70
2012,07,04,09,42,12.70
2012,07,04,09,43,12.70
2012,07,04,09,44,12.60
2012,07,04,09,45,12.60
2012,07,04,09,46,12.50
2012,07,04,09,47,12.50
2012,07,04,09,48,12.60
2012,07,04,09,49,12.70
2012,07,04,09,50,12.70
2012,07,04,09,51,12.80
2012,07,04,09,52,12.80
2012,07,04,09,53,12.80
2012,07,04,09,54,12.70
2012,07,04,09,55,12.70
2012,07,04,09,56,12.60
2012,07,04,09,57,12.60
2012,07,04,09,58,12.60
2012,07,04,09,59,12.50
2012,07,04,10,00,12.50
2012,07,04,10,01,12.60
2012,07,04,10,02,12.60
2012,07,04,10,03,12.60
2012,07,04,10,04,12.60
2012,07,04,10,05,12.60
2012,07,04,10,06,12.70
2012,07,04,10,07,12.70
2012,07,04,10,08,12.70
2012,07,04,10,09,12.70
2012,07,04,10,10,12.60
2012,07,04,10,11,12.60
2012,07,04,10,12,12.60
2012,07,04,10,13,12.60
2012,07,04,10,14,12.60
2012,07,04,10,15,12.70
2012,07,04,10,16,12.80
2012,07,04,10,17,12.80
2012,07,04,10,18,12.80
2012,07,04,10,19,12.80
2012,07,04,10,20,12.70
2012,07,04,10,21,12.70
2012,07,04,10,22,12.70
2012,07,04,10,23,12.70
2012,07,04,10,24,12.80
2012,07,04,10,25,12.90
2012,07,04,10,26,12.90
2012,07,04,10,27,13.00
2012,07,04,10,28,13.00
2012,07,04,10,29,13.10
2012,07,04,10,30,13.10
2012,07,04,10,31,13.20
2012,07,04,10,32,13.20
2012,07,04,10,33,13.20
2012,07,04,10,34,13.10
2012,07,04,10,35,13.00
2012,07,04,10,36,12.90
2012,07,04,10,37,12.90
2012,07,04,10,38,12.90
2012,07,04,10,39,12.90
2012,07,04,10,40,13.00
2012,07,04,10,41,13.10
2012,07,04,10,42,13.10
2012,07,04,10,43,13.10
2012,07,04,10,44,13.10
2012,07,04,10,45,13.00
2012,07,04,10,46,12.90
2012,07,04,10,47,12.90
2012,07,04,10,48,12.90
2012,07,04,10,49,12.90
2012,07,04,10,50,12.90
2012,07,04,10,51,12.80
2012,07,04,10,52,12.80
2012,07,04,10,53,12.80
2012,07,04,10,54,12.80
2012,07,04,10,55,12.80
2012,07,04,10,56,12.80
2012,07,04,10,57,12.80
2012,07,04,10,58,12.90
2012,07,04,10,59,13.00
2012,07,04,11,00,13.10
2012,07,04,11,01,13.20
2012,07,04,11,02,13.20
2012,07,04,11,03,13.10
2012,07,04,11,04,13.10
2012,07,04,11,05,13.10
2012,07,04,11,06,13.20
2012,07,04,11,07,13.20
2012,07,04,11,08,13.20
2012,07,04,11,09,13.20
2012,07,04,11,10,13.10
2012,07,04,11,11,13.10
2012,07,04,11,12,13.10
2012,07,04,11,13,13.10
2012,07,04,11,14,13.10
2012,07,04,11,15,13.10
2012,07,04,11,16,13.00
2012,07,04,11,17,13.10
2012,07,04,11,18,13.10
2012,07,04,11,19,13.10
2012,07,04,11,20,13.10
2012,07,04,11,21,13.10
2012,07,04,11,22,13.10
2012,07,04,11,23,13.10
2012,07,04,11,24,13.10
2012,07,04,11,25,13.10
2012,07,04,11,26,13.10
2012,07,04,11,27,13.10
2012,07,04,11,28,13.10
2012,07,04,11,29,13.10
2012,07,04,11,30,13.20
2012,07,04,11,31,13.20
2012,07,04,11,32,13.20
2012,07,04,11,33,13.10
2012,07,04,11,34,13.10
2012,07,04,11,35,13.20
2012,07,04,11,36,13.30
2012,07,04,11,37,13.20
2012,07,04,11,38,13.20
2012,07,04,11,39,13.20
2012,07,04,11,40,13.20
2012,07,04,11,41,13.20
2012,07,04,11,42,13.20
2012,07,04,11,43,13.30
2012,07,04,11,44,13.50
2012,07,04,11,45,13.60
2012,07,04,11,46,13.60
2012,07,04,11,47,13.50
2012,07,04,11,48,13.40
2012,07,04,11,49,13.30
2012,07,04,11,50,13.30
2012,07,04,11,51,13.20
2012,07,04,11,52,13.20
2012,07,04,11,53,13.30
2012,07,04,11,54,13.30
2012,07,04,11,55,13.40
2012,07,04,11,56,13.50
2012,07,04,11,57,13.60
2012,07,04,11,58,13.60
2012,07,04,11,59,13.70
2012,07,04,12,00,13.60
2012,07,04,12,01,13.50
2012,07,04,12,02,13.50
2012,07,04,12,03,13.40
2012,07,04,12,04,13.40
2012,07,04,12,05,13.40
2012,07,04,12,06,13.40
2012,07,04,12,07,13.40
2012,07,04,12,08,13.40
2012,07,04,12,09,13.40
2012,07,04,12,10,13.40
2012,07,04,12,11,13.40
2012,07,04,12,12,13.40
2012,07,04,12,13,13.40
2012,07,04,12,14,13.30
2012,07,04,12,15,13.40
2012,07,04,12,16,13.30
2012,07,04,12,17,13.40
2012,07,04,12,18,13.40
2012,07,04,12,19,13.40
2012,07,04,12,20,13.30
2012,07,04,12,21,13.40
2012,07,04,12,22,13.40
2012,07,04,12,23,13.40
2012,07,04,12,24,13.50
2012,07,04,12,25,13.50
2012,07,04,12,26,13.50
2012,07,04,12,27,13.60
2012,07,04,12,28,13.60
2012,07,04,12,29,13.60
2012,07,04,12,30,13.70
2012,07,04,12,31,13.70
2012,07,04,12,32,13.70
2012,07,04,12,33,13.70
2012,07,04,12,34,13.70
2012,07,04,12,35,13.70
2012,07,04,12,36,13.70
2012,07,04,12,37,13.70
2012,07,04,12,38,13.70
2012,07,04,12,39,13.70
2012,07,04,12,40,13.60
2012,07,04,12,41,13.60
2012,07,04,12,42,13.50
2012,07,04,12,43,13.40
2012,07,04,12,44,13.50
2012,07,04,12,45,13.50
2012,07,04,12,46,13.50
2012,07,04,12,47,13.50
2012,07,04,12,48,13.50
2012,07,04,12,49,13.50
2012,07,04,12,50,13.50
2012,07,04,12,51,13.50
2012,07,04,12,52,13.60
2012,07,04,12,53,13.70
2012,07,04,12,54,13.80
2012,07,04,12,55,14.00
2012,07,04,12,56,14.10
2012,07,04,12,57,14.20
2012,07,04,12,58,14.10
2012,07,04,12,59,14.00
2012,07,04,13,00,14.00
2012,07,04,13,01,13.90
2012,07,04,13,02,13.80
2012,07,04,13,03,13.70
2012,07,04,13,04,13.60
2012,07,04,13,05,13.60
2012,07,04,13,06,13.60
2012,07,04,13,07,13.60
2012,07,04,13,08,13.60
2012,07,04,13,09,13.60
2012,07,04,13,10,13.60
2012,07,04,13,11,13.70
2012,07,04,13,12,13.80
2012,07,04,13,13,13.80
2012,07,04,13,14,13.90
2012,07,04,13,15,13.80
2012,07,04,13,16,13.80
2012,07,04,13,17,13.70
2012,07,04,13,18,13.70
2012,07,04,13,19,13.70
2012,07,04,13,20,13.80
2012,07,04,13,21,13.80
2012,07,04,13,22,13.90
2012,07,04,13,23,13.90
2012,07,04,13,24,14.00
2012,07,04,13,25,14.10
2012,07,04,13,26,14.00
2012,07,04,13,27,13.90
2012,07,04,13,28,13.90
2012,07,04,13,29,13.90
2012,07,04,13,30,13.80
2012,07,04,13,31,13.80
2012,07,04,13,32,13.90
2012,07,04,13,33,13.90
2012,07,04,13,34,14.00
2012,07,04,13,35,14.00
2012,07,04,13,36,14.10
2012,07,04,13,37,14.10
2012,07,04,13,38,14.10
2012,07,04,13,39,14.10
2012,07,04,13,40,14.20
2012,07,04,13,41,14.20
2012,07,04,13,42,14.30
2012,07,04,13,43,14.30
2012,07,04,13,44,14.30
2012,07,04,13,45,14.40
2012,07,04,13,46,14.30
2012,07,04,13,47,14.20
2012,07,04,13,48,14.20
2012,07,04,13,49,14.10
2012,07,04,13,50,14.00
2012,07,04,13,51,13.90
2012,07,04,13,52,13.80
2012,07,04,13,53,13.80
2012,07,04,13,54,13.80
2012,07,04,13,55,13.70
2012,07,04,13,56,13.70
2012,07,04,13,57,13.80
2012,07,04,13,58,13.90
2012,07,04,13,59,13.90
2012,07,04,14,00,13.80
2012,07,04,14,01,13.80
2012,07,04,14,02,13.80
2012,07,04,14,03,13.80
2012,07,04,14,04,13.70
2012,07,04,14,05,13.70
2012,07,04,14,06,13.70
2012,07,04,14,07,13.80
2012,07,04,14,08,13.80
2012,07,04,14,09,13.90
2012,07,04,14,10,13.90
2012,07,04,14,11,13.90
2012,07,04,14,12,13.90
2012,07,04,14,13,13.90
2012,07,04,14,14,13.90
2012,07,04,14,15,13.90
2012,07,04,14,16,13.90
2012,07,04,14,17,13.90
2012,07,04,14,18,13.90
2012,07,04,14,19,13.90
2012,07,04,14,20,13.80
2012,07,04,14,21,13.80
2012,07,04,14,22,13.90
2012,07,04,14,23,14.00
2012,07,04,14,24,14.10
2012,07,04,14,25,14.20
2012,07,04,14,26,14.20
2012,07,04,14,27,14.20
2012,07,04,14,28,14.20
2012,07,04,14,29,14.20
2012,07,04,14,30,14.30
2012,07,04,14,31,14.30
2012,07,04,14,32,14.40
2012,07,04,14,33,14.40
2012,07,04,14,34,14.30
2012,07,04,14,35,14.30
2012,07,04,14,36,14.20
2012,07,04,14,37,14.20
2012,07,04,14,38,14.30
2012,07,04,14,39,14.40
2012,07,04,14,40,14.40
2012,07,04,14,41,14.40
2012,07,04,14,42,14.50
2012,07,04,14,43,14.50
2012,07,04,14,44,14.50
2012,07,04,14,45,14.60
2012,07,04,14,46,14.60
2012,07,04,14,47,14.70
2012,07,04,14,48,14.60
2012,07,04,14,49,14.60
2012,07,04,14,50,14.60
2012,07,04,14,51,14.60
2012,07,04,14,52,14.60
2012,07,04,14,53,14.60
2012,07,04,14,54,14.60
2012,07,04,14,55,14.70
2012,07,04,14,56,14.80
2012,07,04,14,57,14.90
2012,07,04,14,58,15.00
2012,07,04,14,59,15.00
2012,07,04,15,00,14.90
2012,07,04,15,01,14.80
2012,07,04,15,02,14.80
2012,07,04,15,03,14.80
2012,07,04,15,04,14.80
2012,07,04,15,05,14.80
2012,07,04,15,06,14.80
2012,07,04,15,07,14.80
2012,07,04,15,08,14.70
2012,07,04,15,09,14.70
2012,07,04,15,10,14.60
2012,07,04,15,11,14.60
2012,07,04,15,12,14.60
2012,07,04,15,13,14.60
2012,07,04,15,14,14.70
2012,07,04,15,15,14.80
2012,07,04,15,16,14.80
2012,07,04,15,17,14.90
2012,07,04,15,18,15.00
2012,07,04,15,19,15.00
2012,07,04,15,20,15.00
2012,07,04,15,21,15.00
2012,07,04,15,22,15.00
2012,07,04,15,23,15.00
2012,07,04,15,24,14.90
2012,07,04,15,25,14.90
2012,07,04,15,26,14.80
2012,07,04,15,27,14.80
2012,07,04,15,28,14.80
2012,07,04,15,29,14.70
2012,07,04,15,30,14.70
2012,07,04,15,31,14.70
2012,07,04,15,32,14.70
2012,07,04,15,33,14.70
2012,07,04,15,34,14.70
2012,07,04,15,35,14.80
2012,07,04,15,36,14.90
2012,07,04,15,37,15.00
2012,07,04,15,38,15.00
2012,07,04,15,39,15.00
2012,07,04,15,40,15.00
2012,07,04,15,41,15.00
2012,07,04,15,42,15.00
2012,07,04,15,43,15.00
2012,07,04,15,44,15.00
2012,07,04,15,45,15.00
2012,07,04,15,46,15.00
2012,07,04,15,47,15.10
2012,07,04,15,48,15.10
2012,07,04,15,49,15.10
2012,07,04,15,50,15.10
2012,07,04,15,51,15.10
2012,07,04,15,52,15.10
2012,07,04,15,53,15.00
2012,07,04,15,54,15.10
2012,07,04,15,55,15.20
2012,07,04,15,56,15.20
2012,07,04,15,57,15.20
2012,07,04,15,58,15.30
2012,07,04,15,59,15.30
2012,07,04,16,00,15.20
2012,07,04,16,01,15.20
2012,07,04,16,02,15.10
2012,07,04,16,03,15.00
2012,07,04,16,04,15.00
2012,07,04,16,05,15.00
2012,07,04,16,06,15.00
2012,07,04,16,07,14.90
2012,07,04,16,08,14.90
2012,07,04,16,09,15.00
2012,07,04,16,10,15.00
2012,07,04,16,11,15.00
2012,07,04,16,12,15.00
2012,07,04,16,13,15.00
2012,07,04,16,14,15.00
2012,07,04,16,15,15.00
2012,07,04,16,16,15.00
2012,07,04,16,17,15.00
2012,07,04,16,18,15.00
2012,07,04,16,19,15.00
2012,07,04,16,20,15.00
2012,07,04,16,21,15.00
2012,07,04,16,22,15.00
2012,07,04,16,23,15.00
2012,07,04,16,24,15.00
2012,07,04,16,25,15.00
2012,07,04,16,26,15.00
2012,07,04,16,27,15.00
2012,07,04,16,28,15.00
2012,07,04,16,29,15.10
2012,07,04,16,30,15.10
2012,07,04,16,31,15.10
2012,07,04,16,32,15.20
2012,07,04,16,33,15.30
2012,07,04,16,34,15.30
2012,07,04,16,35,15.30
2012,07,04,16,36,15.30
2012,07,04,16,37,15.30
2012,07,04,16,38,15.30
2012,07,04,16,39,15.20
2012,07,04,16,40,15.10
2012,07,04,16,41,15.00
2012,07,04,16,42,15.00
2012,07,04,16,43,15.20
2012,07,04,16,44,15.20
2012,07,04,16,45,15.10
2012,07,04,16,46,15.20
2012,07,04,16,47,15.30
2012,07,04,16,48,15.30
2012,07,04,16,49,15.30
2012,07,04,16,50,15.30
2012,07,04,16,51,15.30
2012,07,04,16,52,15.30
2012,07,04,16,53,15.20
2012,07,04,16,54,15.20
2012,07,04,16,55,15.20
2012,07,04,16,56,15.20
2012,07,04,16,57,15.20
2012,07,04,16,58,15.20
2012,07,04,16,59,15.20
2012,07,04,17,00,15.20
2012,07,04,17,01,15.10
2012,07,04,17,02,15.10
2012,07,04,17,03,15.10
2012,07,04,17,04,15.10
2012,07,04,17,05,15.00
2012,07,04,17,06,15.00
2012,07,04,17,07,15.00
2012,07,04,17,08,15.00
2012,07,04,17,09,15.00
2012,07,04,17,10,15.00
2012,07,04,17,11,15.10
2012,07,04,17,12,15.20
2012,07,04,17,13,15.20
2012,07,04,17,14,15.20
2012,07,04,17,15,15.10
2012,07,04,17,16,15.00
2012,07,04,17,17,15.00
2012,07,04,17,18,15.00
2012,07,04,17,19,15.00